This is the latest recevied weather packets stored in our database for station/object N9OJR. If no packets are shown the sender has not sent any weather packets the latest 10 day(s).
| Time | Temp. | Humidity | Pressure | Rain* | Wind** | Luminosity | Snow |
|---|---|---|---|---|---|---|---|
| 1778155314 | 5° C | 99% | 1009.7 hPa | 0 mm | - | 238 W/m² | - |
| 1778155011 | 5.56° C | 99% | 1009.8 hPa | 0 mm | - | 91 W/m² | - |
| 1778154706 | 5.56° C | 99% | 1009.7 hPa | 0 mm | - | 117 W/m² | - |
| 1778154402 | 5.56° C | 99% | 1009.7 hPa | 0 mm | - | 131 W/m² | - |
| 1778154099 | 5° C | 99% | 1009.7 hPa | 0 mm | - | 75 W/m² | - |
| 1778153797 | 4.44° C | 99% | 1009.8 hPa | 0 mm | - | 62 W/m² | - |
| 1778153493 | 3.89° C | 99% | 1009.5 hPa | 0 mm | - | 44 W/m² | - |
| 1778153192 | 3.89° C | 99% | 1009.5 hPa | 0 mm | - | 39 W/m² | - |
| 1778152888 | 3.33° C | 99% | 1009.6 hPa | 0 mm | - | 34 W/m² | - |
| 1778152585 | 2.78° C | 99% | 1009.3 hPa | 0 mm | - | 32 W/m² | - |
| 1778152282 | 2.78° C | 99% | 1009.6 hPa | 0 mm | - | 29 W/m² | - |
| 1778151978 | 2.22° C | 99% | 1009.5 hPa | 0 mm | - | 26 W/m² | - |
| 1778151675 | 2.22° C | 99% | 1009.4 hPa | 0 mm | - | 24 W/m² | - |
| 1778151372 | 1.67° C | 99% | 1009.7 hPa | 0 mm | - | 21 W/m² | - |
| 1778151067 | 1.67° C | 99% | 1009.6 hPa | 0 mm | - | 18 W/m² | - |
| 1778150765 | 1.67° C | 99% | 1009.1 hPa | 0 mm | - | 15 W/m² | - |
| 1778150461 | 1.67° C | 99% | 1009.5 hPa | 0 mm | - | 12 W/m² | - |
| 1778150158 | 1.67° C | 99% | 1009.2 hPa | 0 mm | - | 8 W/m² | - |
| 1778149855 | 1.67° C | 99% | 1009.1 hPa | 0 mm | - | 6 W/m² | - |
| 1778149551 | 1.67° C | 99% | 1009.3 hPa | 0 mm | - | 3 W/m² | - |
| 1778149247 | 1.67° C | 99% | 1009.2 hPa | 0 mm | - | 2 W/m² | - |
| 1778148943 | 1.67° C | 99% | 1009.3 hPa | 0 mm | - | 0 W/m² | - |
| 1778148639 | 1.67° C | 99% | 1009.4 hPa | 0 mm | - | 0 W/m² | - |
| 1778148337 | 1.11° C | 99% | 1009.2 hPa | 0 mm | - | 0 W/m² | - |
| 1778148035 | 1.67° C | 99% | 1009.2 hPa | 0 mm | - | 0 W/m² | - |
* Rain latest hour (hover to see other rain measurements)
** Current wind speed in m/s (hover to see current wind gust speed)